| time (UTC) | temp F | wind direction | speed knots | gust knots | rain 1hr in | rain 24hr in | rain mn in | humidity % | barometer mb |
| 20260502151552 | 66 | 185 | 2.6 | 6.1 | 0.00 | 0.00 | 0.00 | 26 | 1014.3 |
| 20260502123004 | 35 | 177 | 1.7 | 3.5 | 0.00 | 0.00 | 0.00 | 65 | 1015.2 |
| 20260502121503 | 36 | 170 | 0.9 | 6.1 | 0.00 | 0.00 | 0.00 | 63 | 1015.2 |
| 20260502114501 | 37 | 187 | 3.5 | 6.1 | 0.00 | 0.00 | 0.00 | 60 | 1015.2 |
| 20260502113100 | 37 | 183 | 0.9 | 4.3 | 0.00 | 0.00 | 0.00 | 60 | 1015.2 |
| 20260502111559 | 39 | 179 | 2.6 | 7.0 | 0.00 | 0.00 | 0.00 | 58 | 1015.3 |
| 20260502110057 | 39 | 175 | 4.3 | 7.0 | 0.00 | 0.00 | 0.00 | 59 | 1015.5 |
| 20260502104556 | 38 | 179 | 4.3 | 9.6 | 0.00 | 0.00 | 0.00 | 61 | 1015.5 |
| 20260502103054 | 37 | 165 | 7.0 | 10.4 | 0.00 | 0.00 | 0.00 | 64 | 1015.7 |
| 20260502101559 | 37 | 185 | 4.3 | 7.8 | 0.00 | 0.00 | 0.00 | 64 | 1015.9 |
| 20260502071529 | 36 | 183 | 0.0 | 2.6 | 0.00 | 0.00 | 0.00 | 68 | 1017.4 |
| 20260502070022 | 38 | 183 | 0.0 | 1.7 | 0.00 | 0.00 | 0.00 | 65 | 1017.4 |
| 20260502064520 | 38 | 183 | 1.7 | 5.2 | 0.00 | 0.00 | 0.00 | 65 | 1017.5 |
| 20260502063019 | 39 | 183 | 1.7 | 3.5 | 0.00 | 0.00 | 0.00 | 64 | 1017.5 |
| 20260502061515 | 39 | 183 | 0.0 | 2.6 | 0.00 | 0.00 | 0.00 | 63 | 1017.5 |
| 20260502060012 | 39 | 183 | 0.9 | 4.3 | 0.00 | 0.00 | 0.00 | 63 | 1017.6 |
| 20260502054521 | 40 | 183 | 0.9 | 7.8 | 0.00 | 0.00 | 0.00 | 61 | 1017.6 |
| 20260502053011 | 40 | 187 | 3.5 | 6.1 | 0.00 | 0.00 | 0.00 | 61 | 1017.6 |
| 20260502051518 | 42 | 189 | 0.9 | 2.6 | 0.00 | 0.00 | 0.00 | 58 | 1017.6 |
| 20260502050028 | 43 | 188 | 0.9 | 4.3 | 0.00 | 0.00 | 0.00 | 56 | 1017.7 |
| 20260502044511 | 45 | 177 | 3.5 | 6.1 | 0.00 | 0.00 | 0.00 | 53 | 1017.9 |
| 20260502043010 | 45 | 175 | 3.5 | 7.0 | 0.00 | 0.00 | 0.00 | 52 | 1017.9 |
| 20260502041513 | 45 | 172 | 5.2 | 7.8 | 0.00 | 0.00 | 0.00 | 52 | 1018.0 |
| 20260502040012 | 45 | 179 | 2.6 | 5.2 | 0.00 | 0.00 | 0.00 | 52 | 1018.0 |
| 20260502034512 | 46 | 179 | 2.6 | 7.8 | 0.00 | 0.00 | 0.00 | 50 | 1017.9 |
| 20260502033016 | 46 | 179 | 2.6 | 7.0 | 0.00 | 0.00 | 0.00 | 47 | 1017.8 |
| 20260502031507 | 48 | 249 | 0.0 | 3.5 | 0.00 | 0.00 | 0.00 | 44 | 1017.6 |
| 20260502030020 | 51 | 359 | 0.0 | 2.6 | 0.00 | 0.00 | 0.00 | 41 | 1017.5 |
| 20260502024507 | 52 | 303 | 0.0 | 0.0 | 0.00 | 0.00 | 0.00 | 38 | 1017.3 |
| 20260502023005 | 54 | 359 | 0.0 | 0.0 | 0.00 | 0.00 | 0.00 | 36 | 1017.1 |
| 20260502021505 | 56 | 303 | 0.9 | 1.7 | 0.00 | 0.00 | 0.00 | 34 | 1017.0 |
| 20260502020005 | 57 | 359 | 0.0 | 1.7 | 0.00 | 0.00 | 0.00 | 34 | 1016.9 |
| 20260502014504 | 59 | 303 | 1.7 | 6.1 | 0.00 | 0.00 | 0.00 | 33 | 1016.8 |
| 20260502013004 | 60 | 293 | 2.6 | 6.1 | 0.00 | 0.00 | 0.00 | 32 | 1016.8 |
| 20260502011509 | 61 | 291 | 5.2 | 7.8 | 0.00 | 0.00 | 0.00 | 29 | 1016.7 |
| 20260502010006 | 62 | 301 | 3.5 | 7.8 | 0.00 | 0.00 | 0.00 | 31 | 1016.6 |
| 20260502004509 | 63 | 291 | 6.1 | 11.3 | 0.00 | 0.00 | 0.00 | 28 | 1016.6 |
| 20260502003001 | 63 | 359 | 7.0 | 13.0 | 0.00 | 0.00 | 0.00 | 26 | 1016.5 |
| 20260502001501 | 63 | 302 | 8.7 | 12.2 | 0.00 | 0.00 | 0.00 | 27 | 1016.7 |
| 20260502000113 | 63 | 288 | 7.0 | 13.9 | 0.00 | 0.00 | 0.00 | 27 | 1016.6 |
| 20260501234600 | 64 | 297 | 9.6 | 14.8 | 0.00 | 0.00 | 0.00 | 28 | 1016.6 |
| 20260501233058 | 64 | 359 | 10.4 | 16.5 | 0.00 | 0.00 | 0.00 | 27 | 1016.7 |
| 20260501231558 | 64 | 264 | 6.1 | 13.9 | 0.00 | 0.00 | 0.00 | 26 | 1016.8 |
| 20260501230100 | 64 | 272 | 9.6 | 16.5 | 0.00 | 0.00 | 0.00 | 28 | 1016.8 |
| 20260501224557 | 64 | 288 | 8.7 | 20.0 | 0.00 | 0.00 | 0.00 | 27 | 1016.7 |
| 20260501223105 | 64 | 294 | 7.8 | 15.6 | 0.00 | 0.00 | 0.00 | 29 | 1016.8 |
| 20260501221559 | 64 | 275 | 7.8 | 13.9 | 0.00 | 0.00 | 0.00 | 28 | 1016.8 |
| 20260501214554 | 64 | 359 | 7.8 | 16.5 | 0.00 | 0.00 | 0.00 | 27 | 1016.9 |
| 20260501213055 | 63 | 261 | 11.3 | 18.2 | 0.00 | 0.00 | 0.00 | 28 | 1017.0 |
| 20260501211601 | 63 | 276 | 12.2 | 20.9 | 0.00 | 0.00 | 0.00 | 27 | 1017.1 |
| 20260501210055 | 63 | 287 | 12.2 | 20.0 | 0.00 | 0.00 | 0.00 | 29 | 1017.2 |
| 20260501204549 | 64 | 278 | 11.3 | 17.4 | 0.00 | 0.00 | 0.00 | 26 | 1017.3 |
| 20260501203048 | 64 | 276 | 10.4 | 18.2 | 0.00 | 0.00 | 0.00 | 29 | 1017.3 |
| 20260501201546 | 63 | 21 | 8.7 | 17.4 | 0.00 | 0.00 | 0.00 | 30 | 1017.4 |
| 20260501200045 | 63 | 297 | 13.0 | 20.0 | 0.00 | 0.00 | 0.00 | 30 | 1017.4 |
| 20260501194544 | 63 | 294 | 13.9 | 23.5 | 0.00 | 0.00 | 0.00 | 30 | 1017.5 |
| 20260501193044 | 63 | 272 | 9.6 | 19.1 | 0.00 | 0.00 | 0.00 | 31 | 1017.6 |
| 20260501191542 | 63 | 275 | 13.9 | 20.0 | 0.00 | 0.00 | 0.00 | 30 | 1017.7 |
| 20260501190052 | 62 | 279 | 10.4 | 19.1 | 0.00 | 0.00 | 0.00 | 30 | 1017.7 |
| 20260501184542 | 62 | 307 | 11.3 | 18.2 | 0.00 | 0.00 | 0.00 | 29 | 1017.8 |
| 20260501183036 | 62 | 287 | 13.0 | 20.9 | 0.00 | 0.00 | 0.00 | 30 | 1018.0 |
| 20260501181534 | 61 | 301 | 13.0 | 22.6 | 0.00 | 0.00 | 0.00 | 32 | 1017.8 |
| 20260501180044 | 61 | 300 | 12.2 | 18.2 | 0.00 | 0.00 | 0.00 | 31 | 1018.1 |
| 20260501174532 | 61 | 297 | 10.4 | 22.6 | 0.00 | 0.00 | 0.00 | 33 | 1018.3 |
| 20260501173027 | 60 | 278 | 13.0 | 19.1 | 0.00 | 0.00 | 0.00 | 31 | 1018.4 |
| 20260501171525 | 60 | 281 | 11.3 | 20.0 | 0.00 | 0.00 | 0.00 | 32 | 1018.2 |
| 20260501170023 | 60 | 273 | 14.8 | 22.6 | 0.00 | 0.00 | 0.00 | 33 | 1018.3 |
| 20260501164521 | 60 | 270 | 10.4 | 20.0 | 0.00 | 0.00 | 0.00 | 34 | 1018.3 |
| 20260501163018 | 59 | 302 | 11.3 | 20.0 | 0.00 | 0.00 | 0.00 | 34 | 1018.3 |
| 20260501161525 | 59 | 230 | 9.6 | 15.6 | 0.00 | 0.00 | 0.00 | 34 | 1018.2 |
| 20260501160011 | 58 | 272 | 12.2 | 20.9 | 0.00 | 0.00 | 0.00 | 34 | 1018.3 |
| 20260501154504 | 57 | 277 | 13.0 | 19.1 | 0.00 | 0.00 | 0.00 | 34 | 1018.4 |
| 20260501153001 | 57 | 254 | 9.6 | 13.0 | 0.00 | 0.00 | 0.00 | 35 | 1018.4 |